Terminal Aerodrome Forecast
Issued by NWS Portland, OR

Home | Current Version | Previous Version | Text Only | Print | Product List | Glossary On
Versions: 1 2 3 4 5 6 7 8 9 10 11 12 13 14 15 16 17 18 19 20 21 22 23 24 25 26 27 28 29
000
FTUS46 KPQR 022320
TAFSLE
TAF
KSLE 022320Z 0300/0324 VRB04KT P6SM VCSH BKN120
     FM031500 36005KT P6SM VCSH BKN120=

USA.gov is the U.S. government's official web portal to all federal, state and local government web resources and services.